Location: Austin
(30.3000°N, 97.7500°W)
Time: 02:22:00
(UTC-05:00)

Delta 7925 Rocket - Pass Details

Date: 01 October 2024
Orbit: 645 x 1643 km, 26.3° (Epoch: 06 October)

Event Time Altitude Azimuth Distance (km) Brightness Sun altitude
Rises 20:28:31 0° 259° (W) 3,081 8.1 -16.6°
Reaches altitude 10° 20:31:02 10° 255° (WSW) 2,093 6.9 -17.1°
Maximum altitude 20:35:39 53° 178° (S) 790 3.5 -18.1°
Enters shadow 20:37:14 35° 123° (ESE) 1,032 3.7 -18.4°
